Flag for Norway Weather past 2 weeks in Fevik, Norway

Now
69 °F

Mild.


Feels Like: 69 °F
Forecast: 63 / 77 °F
Wind: 1 mph from Southwest

Location: Torungen Fyr

Current Time: Jul 28, 2014 at 11:33:08 AM

Latest Report: Jul 28, 2014 at 10:00 AM


Visibility: N/A

Pressure: 29.96 "Hg

Humidity: 83%

Dew point: 64 °F

Location of FevikLocation

Historic Weather in Fevik — Graph

°F

Fevik temperature yesterday

Maximum temperature yesterday: 73 °F (at 5:00 PM)
Minimum temperature yesterday: 67 °F (at 1:00 PM)
Average temperature yesterday: 70 °F

Past Weeks' High & Low Weather Summary

 TemperatureHumidityPressure
High77 °F (Jul 24, 4:00 PM)95% (Jul 14, 4:00 AM)30.30 "Hg (Jul 14, 4:00 AM)
Low57 °F (Jul 19, 5:00 AM)48% (Jul 16, 12:00 PM)29.56 "Hg (Jul 14, 3:00 AM)
Average68 °F77%30.03 "Hg
* Reported Jul 13 11:00 AM — Jul 28 10:00 AM, Fevik, Weather by CustomWeather, © 2014

Note: Actual official high and low records may vary slightly from our data, if they occured in-between our weather recording intervals... More about our weather records

Advertising

Fevik weather history for previous 24 hours

 ConditionsComfort  
Time TempWeatherWind HumidityBarometerVisibility
10:00 AM
Jul 28
69 °FMild.1 mph83%29.96 "HgN/A
9:00 AM68 °FMild.2 mph86%29.96 "HgN/A
8:00 AM65 °FMild.2 mph91%29.95 "HgN/A
7:00 AM64 °FMild.3 mph93%29.94 "HgN/A
6:00 AM64 °FMild.3 mph94%29.93 "HgN/A
5:00 AM65 °FMild.3 mph94%29.93 "HgN/A
4:00 AM66 °FMild.2 mph94%29.93 "HgN/A
3:00 AM66 °FMild.2 mph94%29.93 "HgN/A
2:00 AM67 °FMild.2 mph94%29.93 "HgN/A
1:00 AM67 °FMild.2 mph93%29.93 "HgN/A
12:00 AM69 °FMild.2 mph91%29.93 "HgN/A
11:00 PM
Jul 27
70 °FMild.2 mph83%29.92 "HgN/A
10:00 PM70 °FMild.3 mph84%29.92 "HgN/A
9:00 PM71 °FMild.1 mph85%29.90 "HgN/A
8:00 PM71 °FMild.5 mph87%29.90 "HgN/A
7:00 PM71 °FMild.7 mph83%29.90 "HgN/A
6:00 PM73 °FMild.3 mph80%29.89 "HgN/A
5:00 PM73 °FMild.2 mph77%29.90 "HgN/A
4:00 PM72 °FMild.1 mph77%29.91 "HgN/A
3:00 PM71 °FMild.2 mph83%29.92 "HgN/A
2:00 PM69 °FMild.2 mph88%29.92 "HgN/A
1:00 PM67 °FMild.3 mph85%29.95 "HgN/A
12:00 PM67 °FMild.8 mph88%29.96 "HgN/A
11:00 AM71 °FMild.8 mph80%29.94 "HgN/A
Weather by CustomWeather, © 2014

See weather overviewHow to use our weather pages